Location: Newark
(13.5236°S, 71.9791°W)
Time: 03:39:20
(UTC+00:00)

BEESAT 2 - Visible Passes

Search period start: 20 September 2019 00:00
Search period end: 30 September 2019 00:00
Orbit: 497 x 532 km, 64.9° (Epoch: 18 September)

Date Brightness Start Highest point End Pass type
(mag) Time Alt. Az. Time Alt. Az. Time Alt. Az.
20 Sep ? 00:49:13 10° WNW 00:52:05 19° WSW 00:52:05 19° WSW visible
21 Sep ? 00:33:12 10° WNW 00:36:03 19° WSW 00:38:54 10° SSW visible
22 Sep ? 00:17:12 10° WNW 00:20:01 19° WSW 00:22:49 10° SSW visible
23 Sep ? 00:01:11 10° WNW 00:03:58 18° WSW 00:06:45 10° SSW visible
23 Sep ? 10:07:52 10° SSW 10:11:42 74° ESE 10:15:30 10° NNE visible
23 Sep ? 23:45:11 10° WNW 23:47:55 18° WSW 23:50:40 10° SSW visible
24 Sep ? 09:51:50 10° SSW 09:55:39 75° ESE 09:59:27 10° NNE visible
24 Sep ? 23:29:11 10° WNW 23:31:53 18° WSW 23:34:35 10° SSW visible
25 Sep ? 09:35:46 10° SSW 09:39:36 77° ESE 09:43:25 10° NNE visible
25 Sep ? 23:13:10 10° WNW 23:15:49 17° WSW 23:18:30 10° SSW visible
26 Sep ? 09:19:43 10° SSW 09:23:32 79° ESE 09:27:21 10° NNE visible
27 Sep ? 09:06:40 53° S 09:07:29 80° ESE 09:11:19 10° NNE visible
28 Sep ? 08:53:42 23° NNE 08:53:42 23° NNE 08:55:16 10° NNE visible
